Time,TemperatureF,DewpointF,PressureIn,WindDirection,WindDirectionDegrees,WindSpeedMPH,WindSpeedGustMPH,Humidity,HourlyPrecipIn,Conditions,Clouds,dailyrainin,SoftwareType,DateUTC
2013-01-09 00:00:00,29.7,23.1,30.35,North,0,0.0,0.4,76,0.00,,,0.00,WUHU216HW,2013-01-09 05:00:00,
2013-01-09 00:05:00,29.7,23.1,30.35,North,0,0.0,0.0,76,0.00,,,0.00,WUHU216HW,2013-01-09 05:05:00,
2013-01-09 00:10:00,29.9,23.2,30.35,North,0,0.0,0.0,76,0.00,,,0.00,WUHU216HW,2013-01-09 05:10:00,
2013-01-09 00:15:00,29.9,23.2,30.35,North,0,0.0,0.0,76,0.00,,,0.00,WUHU216HW,2013-01-09 05:15:00,
2013-01-09 00:20:00,29.9,23.2,30.34,North,0,0.0,0.0,76,0.00,,,0.00,WUHU216HW,2013-01-09 05:20:00,
2013-01-09 00:25:00,29.9,23.2,30.34,North,0,0.0,0.0,76,0.00,,,0.00,WUHU216HW,2013-01-09 05:25:00,
2013-01-09 00:30:00,29.9,23.2,30.34,North,0,0.0,0.0,76,0.00,,,0.00,WUHU216HW,2013-01-09 05:30:00,
2013-01-09 00:35:00,29.9,23.2,30.34,North,0,0.0,0.0,76,0.00,,,0.00,WUHU216HW,2013-01-09 05:35:00,
2013-01-09 00:40:00,29.7,23.1,30.34,North,0,0.0,0.0,76,0.00,,,0.00,WUHU216HW,2013-01-09 05:40:00,
2013-01-09 00:45:00,29.7,23.1,30.34,North,0,0.0,0.0,76,0.00,,,0.00,WUHU216HW,2013-01-09 05:45:00,
2013-01-09 00:50:00,29.7,23.1,30.34,North,0,0.0,0.0,76,0.00,,,0.00,WUHU216HW,2013-01-09 05:50:00,
2013-01-09 00:55:00,29.7,23.1,30.34,North,0,0.0,0.0,76,0.00,,,0.00,WUHU216HW,2013-01-09 05:55:00,
2013-01-09 01:00:00,29.7,23.1,30.35,North,0,0.0,0.0,76,0.00,,,0.00,WUHU216HW,2013-01-09 06:00:00,
2013-01-09 01:05:00,29.5,22.9,30.34,North,0,0.0,0.0,76,0.00,,,0.00,WUHU216HW,2013-01-09 06:05:00,
2013-01-09 01:10:00,29.5,22.9,30.34,North,0,0.0,0.0,76,0.00,,,0.00,WUHU216HW,2013-01-09 06:10:00,
2013-01-09 01:15:00,29.5,22.9,30.35,North,0,0.0,0.0,76,0.00,,,0.00,WUHU216HW,2013-01-09 06:15:00,
2013-01-09 01:20:00,29.5,22.9,30.35,North,0,0.0,0.0,76,0.00,,,0.00,WUHU216HW,2013-01-09 06:20:00,
2013-01-09 01:25:00,29.5,22.9,30.35,North,0,0.0,0.0,76,0.00,,,0.00,WUHU216HW,2013-01-09 06:25:00,
2013-01-09 01:30:00,29.5,22.9,30.35,North,0,0.0,0.0,76,0.00,,,0.00,WUHU216HW,2013-01-09 06:30:00,
2013-01-09 01:35:00,29.5,23.1,30.35,North,0,0.0,0.0,77,0.00,,,0.00,WUHU216HW,2013-01-09 06:35:00,
2013-01-09 01:40:00,29.3,23.0,30.35,North,0,0.0,0.0,77,0.00,,,0.00,WUHU216HW,2013-01-09 06:40:00,
2013-01-09 01:45:00,29.3,23.0,30.36,North,0,0.0,0.0,77,0.00,,,0.00,WUHU216HW,2013-01-09 06:45:00,
2013-01-09 01:50:00,29.3,23.0,30.35,North,0,0.0,0.0,77,0.00,,,0.00,WUHU216HW,2013-01-09 06:50:00,
2013-01-09 01:55:00,29.2,22.9,30.35,North,0,0.0,0.0,77,0.00,,,0.00,WUHU216HW,2013-01-09 06:55:00,
2013-01-09 02:00:00,29.2,22.9,30.35,North,0,0.0,0.0,77,0.00,,,0.00,WUHU216HW,2013-01-09 07:00:00,
2013-01-09 02:05:00,29.2,22.9,30.35,North,0,0.0,0.0,77,0.00,,,0.00,WUHU216HW,2013-01-09 07:05:00,
2013-01-09 02:10:00,29.2,22.9,30.35,North,0,0.0,0.0,77,0.00,,,0.00,WUHU216HW,2013-01-09 07:10:00,
2013-01-09 02:15:00,29.2,22.9,30.34,North,0,0.0,0.0,77,0.00,,,0.00,WUHU216HW,2013-01-09 07:15:00,
2013-01-09 02:20:00,29.2,22.9,30.34,North,0,0.0,0.0,77,0.00,,,0.00,WUHU216HW,2013-01-09 07:20:00,
2013-01-09 02:25:00,29.0,22.7,30.34,North,0,0.0,0.0,77,0.00,,,0.00,WUHU216HW,2013-01-09 07:25:00,
2013-01-09 02:30:00,29.0,22.7,30.34,North,0,0.0,0.0,77,0.00,,,0.00,WUHU216HW,2013-01-09 07:30:00,
2013-01-09 02:35:00,29.0,23.0,30.34,North,0,0.0,0.0,78,0.00,,,0.00,WUHU216HW,2013-01-09 07:35:00,
2013-01-09 02:40:00,29.0,23.0,30.34,North,0,0.0,0.0,78,0.00,,,0.00,WUHU216HW,2013-01-09 07:40:00,
2013-01-09 02:45:00,28.8,22.8,30.34,North,0,0.0,0.0,78,0.00,,,0.00,WUHU216HW,2013-01-09 07:45:00,
2013-01-09 02:50:00,28.8,22.8,30.35,North,0,0.0,0.0,78,0.00,,,0.00,WUHU216HW,2013-01-09 07:50:00,
2013-01-09 02:55:00,28.8,22.8,30.35,North,0,0.0,0.0,78,0.00,,,0.00,WUHU216HW,2013-01-09 07:55:00,
2013-01-09 03:00:00,28.8,22.8,30.35,North,0,0.0,0.0,78,0.00,,,0.00,WUHU216HW,2013-01-09 08:00:00,
2013-01-09 03:05:00,28.8,22.8,30.34,North,0,0.0,0.0,78,0.00,,,0.00,WUHU216HW,2013-01-09 08:05:00,
2013-01-09 03:10:00,28.8,22.8,30.35,North,0,0.0,0.0,78,0.00,,,0.00,WUHU216HW,2013-01-09 08:10:00,
2013-01-09 03:15:00,28.8,22.8,30.35,North,0,0.0,0.0,78,0.00,,,0.00,WUHU216HW,2013-01-09 08:15:00,
2013-01-09 03:20:00,28.8,22.8,30.34,North,0,0.0,0.0,78,0.00,,,0.00,WUHU216HW,2013-01-09 08:20:00,
2013-01-09 03:25:00,28.6,23.0,30.35,North,0,0.0,0.0,79,0.00,,,0.00,WUHU216HW,2013-01-09 08:25:00,
2013-01-09 03:30:00,28.6,23.0,30.35,North,0,0.0,0.0,79,0.00,,,0.00,WUHU216HW,2013-01-09 08:30:00,
2013-01-09 03:35:00,28.4,22.8,30.35,North,0,0.0,0.0,79,0.00,,,0.00,WUHU216HW,2013-01-09 08:35:00,
2013-01-09 03:40:00,28.6,23.0,30.34,North,0,0.0,0.0,79,0.00,,,0.00,WUHU216HW,2013-01-09 08:40:00,
2013-01-09 03:45:00,28.4,22.8,30.34,North,0,0.0,0.0,79,0.00,,,0.00,WUHU216HW,2013-01-09 08:45:00,
2013-01-09 03:50:00,28.4,22.8,30.35,North,0,0.0,0.0,79,0.00,,,0.00,WUHU216HW,2013-01-09 08:50:00,
2013-01-09 03:55:00,28.4,22.8,30.34,North,0,0.0,0.0,79,0.00,,,0.00,WUHU216HW,2013-01-09 08:55:00,
2013-01-09 04:00:00,28.4,22.8,30.34,North,0,0.0,0.0,79,0.00,,,0.00,WUHU216HW,2013-01-09 09:00:00,
2013-01-09 04:05:00,28.4,22.8,30.34,North,0,0.0,0.0,79,0.00,,,0.00,WUHU216HW,2013-01-09 09:05:00,
2013-01-09 04:10:00,28.4,22.8,30.34,North,0,0.0,0.0,79,0.00,,,0.00,WUHU216HW,2013-01-09 09:10:00,
2013-01-09 04:15:00,28.4,22.8,30.34,North,0,0.0,0.0,79,0.00,,,0.00,WUHU216HW,2013-01-09 09:15:00,
2013-01-09 04:20:00,28.1,22.4,30.35,North,0,0.0,0.0,79,0.00,,,0.00,WUHU216HW,2013-01-09 09:20:00,
2013-01-09 04:25:00,27.9,22.2,30.34,North,0,0.0,0.0,79,0.00,,,0.00,WUHU216HW,2013-01-09 09:25:00,
2013-01-09 04:30:00,27.9,22.2,30.34,North,0,0.0,0.0,79,0.00,,,0.00,WUHU216HW,2013-01-09 09:30:00,
2013-01-09 04:35:00,27.7,22.1,30.33,North,0,0.0,0.0,79,0.00,,,0.00,WUHU216HW,2013-01-09 09:35:00,
2013-01-09 04:40:00,27.7,22.1,30.34,North,0,0.0,0.0,79,0.00,,,0.00,WUHU216HW,2013-01-09 09:40:00,
2013-01-09 04:45:00,27.5,21.9,30.33,North,0,0.0,0.0,79,0.00,,,0.00,WUHU216HW,2013-01-09 09:45:00,
2013-01-09 04:50:00,27.4,21.7,30.34,North,0,0.0,0.0,79,0.00,,,0.00,WUHU216HW,2013-01-09 09:50:00,
2013-01-09 04:55:00,27.2,21.5,30.34,North,0,0.0,0.0,79,0.00,,,0.00,WUHU216HW,2013-01-09 09:55:00,
2013-01-09 05:00:00,27.0,21.3,30.35,North,0,0.0,0.0,79,0.00,,,0.00,WUHU216HW,2013-01-09 10:00:00,
2013-01-09 05:05:00,26.6,21.0,30.35,North,0,0.0,0.0,79,0.00,,,0.00,WUHU216HW,2013-01-09 10:05:00,
2013-01-09 05:10:00,26.5,21.1,30.34,North,0,0.0,0.0,80,0.00,,,0.00,WUHU216HW,2013-01-09 10:10:00,
2013-01-09 05:15:00,26.5,20.8,30.34,North,0,0.0,0.0,79,0.00,,,0.00,WUHU216HW,2013-01-09 10:15:00,
2013-01-09 05:20:00,26.5,20.8,30.34,North,0,0.0,0.0,79,0.00,,,0.00,WUHU216HW,2013-01-09 10:20:00,
2013-01-09 05:25:00,26.5,20.8,30.35,North,0,0.0,0.0,79,0.00,,,0.00,WUHU216HW,2013-01-09 10:25:00,
2013-01-09 05:30:00,26.3,20.9,30.35,North,0,0.0,0.0,80,0.00,,,0.00,WUHU216HW,2013-01-09 10:30:00,
2013-01-09 05:35:00,26.3,20.9,30.35,North,0,0.0,0.0,80,0.00,,,0.00,WUHU216HW,2013-01-09 10:35:00,
2013-01-09 05:40:00,26.1,20.8,30.35,North,0,0.0,0.0,80,0.00,,,0.00,WUHU216HW,2013-01-09 10:40:00,
2013-01-09 05:45:00,26.1,20.8,30.35,North,0,0.0,0.0,80,0.00,,,0.00,WUHU216HW,2013-01-09 10:45:00,
2013-01-09 05:50:00,25.9,20.6,30.36,North,0,0.0,0.0,80,0.00,,,0.00,WUHU216HW,2013-01-09 10:50:00,
2013-01-09 05:55:00,25.7,20.4,30.36,North,0,0.0,0.0,80,0.00,,,0.00,WUHU216HW,2013-01-09 10:55:00,
2013-01-09 06:00:00,25.6,20.3,30.36,North,0,0.0,0.0,80,0.00,,,0.00,WUHU216HW,2013-01-09 11:00:00,
2013-01-09 06:05:00,25.6,20.3,30.36,North,0,0.0,0.0,80,0.00,,,0.00,WUHU216HW,2013-01-09 11:05:00,
2013-01-09 06:10:00,25.6,20.3,30.36,North,0,0.0,0.0,80,0.00,,,0.00,WUHU216HW,2013-01-09 11:10:00,
2013-01-09 06:15:00,25.6,20.3,30.37,North,0,0.0,0.0,80,0.00,,,0.00,WUHU216HW,2013-01-09 11:15:00,
2013-01-09 06:20:00,25.4,20.1,30.37,North,0,0.0,0.0,80,0.00,,,0.00,WUHU216HW,2013-01-09 11:20:00,
2013-01-09 06:25:00,25.4,20.1,30.36,North,0,0.0,0.0,80,0.00,,,0.00,WUHU216HW,2013-01-09 11:25:00,
2013-01-09 06:30:00,25.0,19.8,30.37,North,0,0.0,0.0,80,0.00,,,0.00,WUHU216HW,2013-01-09 11:30:00,
2013-01-09 06:35:00,24.8,19.6,30.37,North,0,0.0,0.0,80,0.00,,,0.00,WUHU216HW,2013-01-09 11:35:00,
2013-01-09 06:40:00,24.8,19.6,30.37,North,0,0.0,0.0,80,0.00,,,0.00,WUHU216HW,2013-01-09 11:40:00,
2013-01-09 06:45:00,24.8,19.6,30.37,North,0,0.0,0.0,80,0.00,,,0.00,WUHU216HW,2013-01-09 11:45:00,
2013-01-09 06:50:00,24.8,19.6,30.38,North,0,0.0,0.0,80,0.00,,,0.00,WUHU216HW,2013-01-09 11:50:00,
2013-01-09 06:55:00,24.8,19.6,30.38,North,0,0.0,0.0,80,0.00,,,0.00,WUHU216HW,2013-01-09 11:55:00,
2013-01-09 07:00:00,24.7,19.4,30.38,North,0,0.0,0.0,80,0.00,,,0.00,WUHU216HW,2013-01-09 12:00:00,
2013-01-09 07:05:00,24.5,19.3,30.38,North,0,0.0,0.0,80,0.00,,,0.00,WUHU216HW,2013-01-09 12:05:00,
2013-01-09 07:10:00,24.5,19.3,30.39,North,0,0.0,0.0,80,0.00,,,0.00,WUHU216HW,2013-01-09 12:10:00,
2013-01-09 07:15:00,24.3,19.1,30.39,North,0,0.0,0.0,80,0.00,,,0.00,WUHU216HW,2013-01-09 12:15:00,
2013-01-09 07:20:00,24.3,19.1,30.39,North,0,0.0,0.0,80,0.00,,,0.00,WUHU216HW,2013-01-09 12:20:00,
2013-01-09 07:25:00,24.3,19.1,30.39,North,0,0.0,0.0,80,0.00,,,0.00,WUHU216HW,2013-01-09 12:25:00,
2013-01-09 07:30:00,24.3,19.4,30.39,North,0,0.0,0.0,81,0.00,,,0.00,WUHU216HW,2013-01-09 12:30:00,
2013-01-09 07:35:00,24.1,19.2,30.38,North,0,0.0,0.0,81,0.00,,,0.00,WUHU216HW,2013-01-09 12:35:00,
2013-01-09 07:40:00,24.3,19.4,30.38,North,0,0.0,0.0,81,0.00,,,0.00,WUHU216HW,2013-01-09 12:40:00,
2013-01-09 07:45:00,24.3,19.4,30.38,North,0,0.0,0.0,81,0.00,,,0.00,WUHU216HW,2013-01-09 12:45:00,
2013-01-09 07:50:00,24.3,19.4,30.38,North,0,0.0,0.0,81,0.00,,,0.00,WUHU216HW,2013-01-09 12:50:00,
2013-01-09 07:55:00,24.5,19.5,30.37,North,0,0.0,0.0,81,0.00,,,0.00,WUHU216HW,2013-01-09 12:55:00,
2013-01-09 08:00:00,24.5,19.3,30.37,North,0,0.0,0.0,80,0.00,,,0.00,WUHU216HW,2013-01-09 13:00:00,
2013-01-09 08:05:00,24.7,19.4,30.37,North,0,0.0,0.0,80,0.00,,,0.00,WUHU216HW,2013-01-09 13:05:00,
2013-01-09 08:10:00,24.8,19.6,30.37,North,0,0.0,0.0,80,0.00,,,0.00,WUHU216HW,2013-01-09 13:10:00,
2013-01-09 08:15:00,24.8,19.6,30.36,North,0,0.0,0.0,80,0.00,,,0.00,WUHU216HW,2013-01-09 13:15:00,
2013-01-09 08:20:00,25.2,20.0,30.36,North,0,0.0,0.0,80,0.00,,,0.00,WUHU216HW,2013-01-09 13:20:00,
2013-01-09 08:25:00,25.4,20.1,30.36,North,0,0.0,0.0,80,0.00,,,0.00,WUHU216HW,2013-01-09 13:25:00,
2013-01-09 08:30:00,25.6,20.3,30.36,North,0,0.0,0.0,80,0.00,,,0.00,WUHU216HW,2013-01-09 13:30:00,
2013-01-09 08:35:00,25.6,20.5,30.36,North,0,0.0,0.0,81,0.00,,,0.00,WUHU216HW,2013-01-09 13:35:00,
2013-01-09 08:40:00,25.7,20.7,30.36,North,0,0.0,0.0,81,0.00,,,0.00,WUHU216HW,2013-01-09 13:40:00,
2013-01-09 08:45:00,25.9,20.9,30.37,North,0,0.0,0.0,81,0.00,,,0.00,WUHU216HW,2013-01-09 13:45:00,
2013-01-09 08:50:00,26.3,21.5,30.36,North,0,0.0,0.0,82,0.00,,,0.00,WUHU216HW,2013-01-09 13:50:00,
2013-01-09 08:55:00,26.5,21.7,30.36,North,0,0.0,0.0,82,0.00,,,0.00,WUHU216HW,2013-01-09 13:55:00,
2013-01-09 09:00:00,26.8,22.0,30.35,North,0,0.0,0.0,82,0.00,,,0.00,WUHU216HW,2013-01-09 14:00:00,
2013-01-09 09:05:00,27.0,22.1,30.36,North,0,0.0,0.0,82,0.00,,,0.00,WUHU216HW,2013-01-09 14:05:00,
2013-01-09 09:10:00,27.4,22.5,30.36,North,0,0.0,0.0,82,0.00,,,0.00,WUHU216HW,2013-01-09 14:10:00,
2013-01-09 09:15:00,27.7,22.9,30.36,North,0,0.0,0.0,82,0.00,,,0.00,WUHU216HW,2013-01-09 14:15:00,
2013-01-09 09:20:00,28.1,23.2,30.36,North,0,0.0,0.0,82,0.00,,,0.00,WUHU216HW,2013-01-09 14:20:00,
2013-01-09 09:25:00,28.3,23.4,30.36,North,0,0.0,0.0,82,0.00,,,0.00,WUHU216HW,2013-01-09 14:25:00,
2013-01-09 09:30:00,28.6,23.8,30.36,North,0,0.0,0.0,82,0.00,,,0.00,WUHU216HW,2013-01-09 14:30:00,
2013-01-09 09:35:00,29.0,24.1,30.36,North,0,0.0,0.0,82,0.00,,,0.00,WUHU216HW,2013-01-09 14:35:00,
2013-01-09 09:40:00,29.5,24.7,30.36,North,0,0.0,0.0,82,0.00,,,0.00,WUHU216HW,2013-01-09 14:40:00,
2013-01-09 09:45:00,29.9,25.0,30.35,North,0,0.0,0.0,82,0.00,,,0.00,WUHU216HW,2013-01-09 14:45:00,
2013-01-09 09:50:00,30.6,25.5,30.35,North,0,0.0,0.0,81,0.00,,,0.00,WUHU216HW,2013-01-09 14:50:00,
2013-01-09 09:55:00,31.0,25.8,30.34,North,0,0.0,0.0,81,0.00,,,0.00,WUHU216HW,2013-01-09 14:55:00,
2013-01-09 10:00:00,31.5,26.4,30.34,North,0,0.0,0.0,81,0.00,,,0.00,WUHU216HW,2013-01-09 15:00:00,
2013-01-09 10:05:00,32.2,27.1,30.34,North,0,0.0,0.4,81,0.00,,,0.00,WUHU216HW,2013-01-09 15:05:00,
2013-01-09 10:10:00,32.8,27.3,30.34,WNW,293,0.7,0.7,80,0.00,,,0.00,WUHU216HW,2013-01-09 15:10:00,
2013-01-09 10:15:00,33.1,27.3,30.34,WNW,293,0.4,0.7,79,0.00,,,0.00,WUHU216HW,2013-01-09 15:15:00,
2013-01-09 10:20:00,33.1,27.0,30.34,WNW,293,0.0,0.7,78,0.00,,,0.00,WUHU216HW,2013-01-09 15:20:00,
2013-01-09 10:25:00,33.3,27.1,30.33,WNW,293,0.0,0.4,78,0.00,,,0.00,WUHU216HW,2013-01-09 15:25:00,
2013-01-09 10:30:00,33.7,27.5,30.33,WNW,293,0.0,0.7,78,0.00,,,0.00,WUHU216HW,2013-01-09 15:30:00,
2013-01-09 10:35:00,34.0,27.5,30.33,WNW,293,0.0,0.7,77,0.00,,,0.00,WUHU216HW,2013-01-09 15:35:00,
2013-01-09 10:40:00,34.4,27.6,30.33,WNW,293,0.4,1.6,76,0.00,,,0.00,WUHU216HW,2013-01-09 15:40:00,
2013-01-09 10:45:00,34.4,27.6,30.32,West,270,1.1,1.8,76,0.00,,,0.00,WUHU216HW,2013-01-09 15:45:00,
2013-01-09 10:50:00,34.7,27.5,30.31,West,270,0.4,1.8,75,0.00,,,0.00,WUHU216HW,2013-01-09 15:50:00,
2013-01-09 10:55:00,34.9,27.7,30.32,West,270,0.7,1.1,75,0.00,,,0.00,WUHU216HW,2013-01-09 15:55:00,
2013-01-09 11:00:00,34.9,27.4,30.31,West,270,0.9,1.3,74,0.00,,,0.00,WUHU216HW,2013-01-09 16:00:00,
2013-01-09 11:05:00,35.1,27.3,30.31,WNW,293,1.6,1.6,73,0.00,,,0.00,WUHU216HW,2013-01-09 16:05:00,
2013-01-09 11:10:00,35.3,27.5,30.31,West,270,0.4,1.6,73,0.00,,,0.00,WUHU216HW,2013-01-09 16:10:00,
2013-01-09 11:15:00,35.6,27.8,30.30,WNW,293,0.4,1.6,73,0.00,,,0.00,WUHU216HW,2013-01-09 16:15:00,
2013-01-09 11:20:00,36.0,28.2,30.29,WNW,293,0.0,1.1,73,0.00,,,0.00,WUHU216HW,2013-01-09 16:20:00,
2013-01-09 11:25:00,36.4,28.5,30.28,WNW,293,0.0,1.1,73,0.00,,,0.00,WUHU216HW,2013-01-09 16:25:00,
2013-01-09 11:30:00,36.7,28.9,30.27,WNW,293,0.2,0.7,73,0.00,,,0.00,WUHU216HW,2013-01-09 16:30:00,
2013-01-09 11:35:00,36.9,29.1,30.26,West,270,0.4,0.4,73,0.00,,,0.00,WUHU216HW,2013-01-09 16:35:00,
2013-01-09 11:40:00,37.1,29.3,30.26,West,270,0.0,0.9,73,0.00,,,0.00,WUHU216HW,2013-01-09 16:40:00,
2013-01-09 11:45:00,37.6,29.8,30.25,South,180,0.7,1.3,73,0.00,,,0.00,WUHU216HW,2013-01-09 16:45:00,
2013-01-09 11:50:00,37.8,30.0,30.24,SW,225,0.0,1.3,73,0.00,,,0.00,WUHU216HW,2013-01-09 16:50:00,
2013-01-09 11:55:00,38.2,30.0,30.24,SSW,203,0.0,1.3,72,0.00,,,0.00,WUHU216HW,2013-01-09 16:55:00,
2013-01-09 12:00:00,38.3,30.1,30.23,SSW,203,0.0,1.3,72,0.00,,,0.00,WUHU216HW,2013-01-09 17:00:00,
2013-01-09 12:05:00,38.7,30.1,30.22,South,180,0.2,1.1,71,0.00,,,0.00,WUHU216HW,2013-01-09 17:05:00,
2013-01-09 12:10:00,39.1,30.4,30.21,ENE,68,0.0,1.1,71,0.00,,,0.00,WUHU216HW,2013-01-09 17:10:00,
2013-01-09 12:15:00,39.2,30.6,30.20,WSW,248,1.1,1.1,71,0.00,,,0.00,WUHU216HW,2013-01-09 17:15:00,
2013-01-09 12:20:00,39.6,31.0,30.19,ESE,113,0.2,1.1,71,0.00,,,0.00,WUHU216HW,2013-01-09 17:20:00,
2013-01-09 12:25:00,40.0,31.3,30.18,SSW,203,0.4,1.1,71,0.00,,,0.00,WUHU216HW,2013-01-09 17:25:00,
2013-01-09 12:30:00,40.1,31.1,30.18,WSW,248,0.7,0.9,70,0.00,,,0.00,WUHU216HW,2013-01-09 17:30:00,
2013-01-09 12:35:00,40.3,31.0,30.18,SW,225,0.7,1.6,69,0.00,,,0.00,WUHU216HW,2013-01-09 17:35:00,
2013-01-09 12:40:00,40.5,30.8,30.18,SSW,203,2.2,2.7,68,0.00,,,0.00,WUHU216HW,2013-01-09 17:40:00,
2013-01-09 12:45:00,40.7,31.0,30.18,SSE,158,0.4,2.7,68,0.00,,,0.00,WUHU216HW,2013-01-09 17:45:00,
2013-01-09 12:50:00,40.9,30.7,30.18,SSW,203,1.3,2.2,67,0.00,,,0.00,WUHU216HW,2013-01-09 17:50:00,
2013-01-09 12:55:00,41.2,31.1,30.17,South,180,1.8,2.2,67,0.00,,,0.00,WUHU216HW,2013-01-09 17:55:00,
2013-01-09 13:00:00,41.2,31.1,30.16,SSE,158,2.5,2.7,67,0.00,,,0.00,WUHU216HW,2013-01-09 18:00:00,
2013-01-09 13:05:00,41.4,31.2,30.15,South,180,0.4,2.7,67,0.00,,,0.00,WUHU216HW,2013-01-09 18:05:00,
2013-01-09 13:10:00,41.6,31.4,30.16,SSW,203,1.3,2.5,67,0.00,,,0.00,WUHU216HW,2013-01-09 18:10:00,
2013-01-09 13:15:00,41.8,31.2,30.17,SSW,203,1.1,3.4,66,0.00,,,0.00,WUHU216HW,2013-01-09 18:15:00,
2013-01-09 13:20:00,41.9,31.4,30.18,NW,315,1.8,4.7,66,0.00,,,0.00,WUHU216HW,2013-01-09 18:20:00,
2013-01-09 13:25:00,42.1,31.1,30.18,SSW,203,2.5,4.7,65,0.00,,,0.00,WUHU216HW,2013-01-09 18:25:00,
2013-01-09 13:30:00,42.5,31.2,30.19,SW,225,2.0,3.6,64,0.00,,,0.00,WUHU216HW,2013-01-09 18:30:00,
2013-01-09 13:35:00,42.7,30.5,30.18,SSW,203,1.6,3.4,62,0.00,,,0.00,WUHU216HW,2013-01-09 18:35:00,
2013-01-09 13:40:00,42.8,30.7,30.19,SSW,203,1.6,4.3,62,0.00,,,0.00,WUHU216HW,2013-01-09 18:40:00,
2013-01-09 13:41:00,42.8,31.1,30.19,SW,225,2.5,4.3,63,0.00,,,0.00,WUHU216HW,2013-01-09 18:41:00,
2013-01-09 13:44:00,42.8,30.7,30.18,South,180,2.0,5.1,62,0.00,,,0.00,WUHU216HW,2013-01-09 18:44:00,
2013-01-09 13:48:00,43.0,30.9,30.18,SSW,203,1.1,5.1,62,0.00,,,0.00,WUHU216HW,2013-01-09 18:48:00,
2013-01-09 13:49:00,43.0,30.9,30.18,SW,225,2.5,5.1,62,0.00,,,0.00,WUHU216HW,2013-01-09 18:49:00,
2013-01-09 13:54:00,43.0,30.9,30.17,SSW,203,0.4,2.7,62,0.00,,,0.00,WUHU216HW,2013-01-09 18:54:00,
2013-01-09 13:59:00,42.8,31.1,30.17,SSE,158,1.8,2.7,63,0.00,,,0.00,WUHU216HW,2013-01-09 18:59:00,
2013-01-09 14:04:00,43.0,31.2,30.16,South,180,4.0,4.0,63,0.00,,,0.00,WUHU216HW,2013-01-09 19:04:00,
2013-01-09 14:09:00,43.0,31.2,30.15,WSW,248,0.9,4.0,63,0.00,,,0.00,WUHU216HW,2013-01-09 19:09:00,
2013-01-09 14:14:00,43.0,31.2,30.14,SSW,203,1.1,4.0,63,0.00,,,0.00,WUHU216HW,2013-01-09 19:14:00,
2013-01-09 14:19:00,43.2,31.4,30.14,SW,225,2.0,3.6,63,0.00,,,0.00,WUHU216HW,2013-01-09 19:19:00,
2013-01-09 14:24:00,43.2,31.4,30.14,SW,225,1.1,3.6,63,0.00,,,0.00,WUHU216HW,2013-01-09 19:24:00,
2013-01-09 14:29:00,43.2,31.4,30.13,South,180,0.0,2.2,63,0.00,,,0.00,WUHU216HW,2013-01-09 19:29:00,
2013-01-09 14:34:00,43.0,31.2,30.13,South,180,0.9,1.8,63,0.00,,,0.00,WUHU216HW,2013-01-09 19:34:00,
2013-01-09 14:39:00,43.0,31.2,30.12,South,180,1.8,2.7,63,0.00,,,0.00,WUHU216HW,2013-01-09 19:39:00,
2013-01-09 14:44:00,42.8,31.5,30.11,South,180,0.0,2.7,64,0.00,,,0.00,WUHU216HW,2013-01-09 19:44:00,
2013-01-09 14:49:00,42.8,31.5,30.11,SW,225,0.7,2.5,64,0.00,,,0.00,WUHU216HW,2013-01-09 19:49:00,
2013-01-09 14:54:00,42.7,31.3,30.11,SW,225,1.1,1.1,64,0.00,,,0.00,WUHU216HW,2013-01-09 19:54:00,
2013-01-09 14:58:00,42.7,31.3,30.11,SW,225,0.2,1.1,64,0.00,,,0.00,WUHU216HW,2013-01-09 19:58:00,
2013-01-09 15:03:00,42.7,31.3,30.12,SW,225,0.4,1.1,64,0.00,,,0.00,WUHU216HW,2013-01-09 20:03:00,
2013-01-09 15:09:00,42.5,31.2,30.12,SW,225,0.4,1.1,64,0.00,,,0.00,WUHU216HW,2013-01-09 20:09:00,
2013-01-09 15:14:00,42.5,31.2,30.11,SSE,158,3.1,3.1,64,0.00,,,0.00,WUHU216HW,2013-01-09 20:14:00,
2013-01-09 15:19:00,42.5,31.2,30.11,West,270,0.9,3.1,64,0.00,,,0.00,WUHU216HW,2013-01-09 20:19:00,
2013-01-09 15:24:00,42.5,30.7,30.11,NW,315,0.7,3.1,63,0.00,,,0.00,WUHU216HW,2013-01-09 20:24:00,
2013-01-09 15:29:00,42.7,30.9,30.10,SW,225,0.4,1.6,63,0.00,,,0.00,WUHU216HW,2013-01-09 20:29:00,
2013-01-09 15:34:00,42.7,30.9,30.10,SW,225,1.8,1.8,63,0.00,,,0.00,WUHU216HW,2013-01-09 20:34:00,
2013-01-09 15:39:00,42.8,31.1,30.09,SW,225,3.1,4.3,63,0.00,,,0.00,WUHU216HW,2013-01-09 20:39:00,
2013-01-09 15:44:00,42.8,30.7,30.09,SW,225,0.9,4.3,62,0.00,,,0.00,WUHU216HW,2013-01-09 20:44:00,
2013-01-09 15:49:00,43.4,30.8,30.09,SSW,203,2.2,4.0,61,0.00,,,0.00,WUHU216HW,2013-01-09 20:49:00,
2013-01-09 15:54:00,43.6,31.4,30.08,WSW,248,1.8,4.5,62,0.00,,,0.00,WUHU216HW,2013-01-09 20:54:00,
2013-01-09 15:59:00,43.6,31.0,30.06,SW,225,3.4,4.5,61,0.00,,,0.00,WUHU216HW,2013-01-09 20:59:00,
2013-01-09 16:04:00,43.6,31.0,30.05,South,180,4.3,5.8,61,0.00,,,0.00,WUHU216HW,2013-01-09 21:04:00,
2013-01-09 16:09:00,43.6,31.0,30.04,SSW,203,1.6,5.8,61,0.00,,,0.00,WUHU216HW,2013-01-09 21:09:00,
2013-01-09 16:14:00,43.6,31.4,30.04,NW,315,1.8,4.3,62,0.00,,,0.00,WUHU216HW,2013-01-09 21:14:00,
2013-01-09 16:19:00,43.6,31.8,30.02,SSE,158,1.8,2.9,63,0.00,,,0.00,WUHU216HW,2013-01-09 21:19:00,
2013-01-09 16:24:00,43.2,31.4,30.00,South,180,0.7,2.7,63,0.00,,,0.00,WUHU216HW,2013-01-09 21:24:00,
2013-01-09 16:29:00,43.0,31.2,30.00,SW,225,0.7,2.9,63,0.00,,,0.00,WUHU216HW,2013-01-09 21:29:00,
2013-01-09 16:34:00,42.8,31.1,30.03,WSW,248,3.1,3.4,63,0.00,,,0.00,WUHU216HW,2013-01-09 21:34:00,
2013-01-09 16:39:00,42.8,31.5,30.05,SW,225,1.1,3.4,64,0.00,,,0.00,WUHU216HW,2013-01-09 21:39:00,
2013-01-09 16:44:00,42.8,31.5,30.04,South,180,2.2,3.1,64,0.00,,,0.00,WUHU216HW,2013-01-09 21:44:00,
2013-01-09 16:49:00,42.8,31.5,30.03,SW,225,0.0,3.6,64,0.00,,,0.00,WUHU216HW,2013-01-09 21:49:00,
2013-01-09 16:54:00,42.8,31.5,30.02,NNW,338,1.3,3.6,64,0.00,,,0.00,WUHU216HW,2013-01-09 21:54:00,
2013-01-09 16:59:00,42.8,31.9,30.02,SW,225,1.1,4.7,65,0.00,,,0.00,WUHU216HW,2013-01-09 21:59:00,
2013-01-09 17:04:00,42.8,31.9,30.01,SSW,203,2.5,4.7,65,0.00,,,0.00,WUHU216HW,2013-01-09 22:04:00,
2013-01-09 17:09:00,42.8,31.9,30.01,SSW,203,1.1,3.8,65,0.00,,,0.00,WUHU216HW,2013-01-09 22:09:00,
2013-01-09 17:14:00,42.8,32.2,30.01,SSW,203,1.3,4.9,66,0.00,,,0.00,WUHU216HW,2013-01-09 22:14:00,
2013-01-09 17:19:00,42.7,32.0,30.01,NW,315,0.9,4.9,66,0.00,,,0.00,WUHU216HW,2013-01-09 22:19:00,
2013-01-09 17:24:00,42.7,32.0,30.01,SSW,203,2.2,4.0,66,0.00,,,0.00,WUHU216HW,2013-01-09 22:24:00,
2013-01-09 17:29:00,42.8,32.7,30.00,SSE,158,3.8,4.0,67,0.00,,,0.00,WUHU216HW,2013-01-09 22:29:00,
2013-01-09 17:34:00,42.7,32.5,29.99,SSE,158,4.3,4.3,67,0.00,,,0.00,WUHU216HW,2013-01-09 22:34:00,
2013-01-09 17:39:00,42.8,33.0,29.99,SSW,203,1.8,4.7,68,0.00,,,0.00,WUHU216HW,2013-01-09 22:39:00,
2013-01-09 17:44:00,42.8,33.0,29.99,WSW,248,1.8,4.7,68,0.00,,,0.00,WUHU216HW,2013-01-09 22:44:00,
2013-01-09 17:49:00,42.7,32.9,29.99,SW,225,2.0,4.0,68,0.00,,,0.00,WUHU216HW,2013-01-09 22:49:00,
2013-01-09 17:54:00,42.7,33.3,29.99,SW,225,1.8,4.0,69,0.00,,,0.00,WUHU216HW,2013-01-09 22:54:00,
2013-01-09 17:59:00,42.8,33.5,29.99,West,270,1.6,4.3,69,0.00,,,0.00,WUHU216HW,2013-01-09 22:59:00,
2013-01-09 18:04:00,42.7,33.7,29.99,SW,225,1.8,4.3,70,0.00,,,0.00,WUHU216HW,2013-01-09 23:04:00,
2013-01-09 18:09:00,42.7,33.7,29.99,SW,225,1.8,3.6,70,0.00,,,0.00,WUHU216HW,2013-01-09 23:09:00,
2013-01-09 18:14:00,42.5,33.5,29.99,South,180,1.6,3.6,70,0.00,,,0.00,WUHU216HW,2013-01-09 23:14:00,
2013-01-09 18:19:00,42.5,33.9,29.99,SSW,203,1.1,3.6,71,0.00,,,0.00,WUHU216HW,2013-01-09 23:19:00,
2013-01-09 18:24:00,42.3,33.3,30.00,SW,225,3.4,3.4,70,0.00,,,0.00,WUHU216HW,2013-01-09 23:24:00,
2013-01-09 18:29:00,42.3,33.7,30.00,SW,225,0.4,3.4,71,0.00,,,0.00,WUHU216HW,2013-01-09 23:29:00,
2013-01-09 18:34:00,42.3,33.7,29.99,SSW,203,1.8,3.4,71,0.00,,,0.00,WUHU216HW,2013-01-09 23:34:00,
2013-01-09 18:39:00,42.1,33.5,29.99,SW,225,2.2,4.0,71,0.00,,,0.00,WUHU216HW,2013-01-09 23:39:00,
2013-01-09 18:44:00,42.1,33.5,29.99,South,180,1.3,4.0,71,0.00,,,0.00,WUHU216HW,2013-01-09 23:44:00,
2013-01-09 18:49:00,42.1,33.8,29.99,SW,225,1.3,4.3,72,0.00,,,0.00,WUHU216HW,2013-01-09 23:49:00,
2013-01-09 18:54:00,42.1,33.8,29.99,WSW,248,1.1,4.3,72,0.00,,,0.00,WUHU216HW,2013-01-09 23:54:00,
2013-01-09 18:59:00,42.1,33.8,30.00,West,270,1.8,3.8,72,0.00,,,0.00,WUHU216HW,2013-01-09 23:59:00,
2013-01-09 19:04:00,42.1,33.8,30.00,North,0,0.0,3.4,72,0.00,,,0.00,WUHU216HW,2013-01-10 00:04:00,
2013-01-09 19:09:00,42.3,34.3,30.00,West,270,3.4,4.7,73,0.00,,,0.00,WUHU216HW,2013-01-10 00:09:00,
2013-01-09 19:14:00,42.5,34.5,30.00,WSW,248,0.9,4.7,73,0.00,,,0.00,WUHU216HW,2013-01-10 00:14:00,
2013-01-09 19:19:00,42.5,34.1,29.99,SSW,203,2.0,3.4,72,0.00,,,0.00,WUHU216HW,2013-01-10 00:19:00,
2013-01-09 19:24:00,42.5,34.1,29.99,SW,225,0.2,3.4,72,0.00,,,0.00,WUHU216HW,2013-01-10 00:24:00,
2013-01-09 19:29:00,42.3,33.9,30.00,SW,225,1.8,4.7,72,0.00,,,0.00,WUHU216HW,2013-01-10 00:29:00,
2013-01-09 19:34:00,42.1,34.1,29.99,SSW,203,2.0,5.1,73,0.00,,,0.00,WUHU216HW,2013-01-10 00:34:00,
2013-01-09 19:39:00,42.3,34.3,29.99,SW,225,1.8,5.1,73,0.00,,,0.00,WUHU216HW,2013-01-10 00:39:00,
2013-01-09 19:44:00,42.3,34.3,29.99,SW,225,1.3,3.4,73,0.00,,,0.00,WUHU216HW,2013-01-10 00:44:00,
2013-01-09 19:49:00,42.3,34.3,29.99,NW,315,0.7,5.6,73,0.00,,,0.00,WUHU216HW,2013-01-10 00:49:00,
2013-01-09 19:54:00,42.1,34.1,29.99,West,270,1.1,5.6,73,0.00,,,0.00,WUHU216HW,2013-01-10 00:54:00,
2013-01-09 19:59:00,42.1,34.1,29.99,WSW,248,2.9,4.0,73,0.00,,,0.00,WUHU216HW,2013-01-10 00:59:00,
2013-01-09 20:04:00,42.1,34.1,29.99,WSW,248,0.7,4.0,73,0.00,,,0.00,WUHU216HW,2013-01-10 01:04:00,
2013-01-09 20:09:00,42.1,34.4,29.99,NW,315,1.8,4.0,74,0.00,,,0.00,WUHU216HW,2013-01-10 01:09:00,
2013-01-09 20:14:00,42.1,34.4,29.99,SW,225,1.1,3.4,74,0.00,,,0.00,WUHU216HW,2013-01-10 01:14:00,
2013-01-09 20:19:00,41.9,33.9,29.99,SSW,203,0.0,3.4,73,0.00,,,0.00,WUHU216HW,2013-01-10 01:19:00,
2013-01-09 20:24:00,41.8,34.0,29.99,West,270,0.9,3.1,74,0.00,,,0.00,WUHU216HW,2013-01-10 01:24:00,
2013-01-09 20:29:00,41.8,34.0,29.99,South,180,4.0,4.0,74,0.00,,,0.00,WUHU216HW,2013-01-10 01:29:00,
2013-01-09 20:34:00,42.1,34.4,29.99,SSW,203,0.0,5.4,74,0.00,,,0.00,WUHU216HW,2013-01-10 01:34:00,
2013-01-09 20:39:00,42.1,34.4,29.99,West,270,0.7,5.4,74,0.00,,,0.00,WUHU216HW,2013-01-10 01:39:00,
2013-01-09 20:43:00,41.9,34.2,29.99,West,270,2.5,2.5,74,0.00,,,0.00,WUHU216HW,2013-01-10 01:43:00,
2013-01-09 20:44:00,41.9,34.2,29.99,West,270,2.5,5.1,74,0.00,,,0.00,WUHU216HW,2013-01-10 01:44:00,
2013-01-09 20:49:00,41.9,34.2,29.99,West,270,2.5,5.1,74,0.00,,,0.00,WUHU216HW,2013-01-10 01:49:00,
2013-01-09 21:00:00,42.5,34.5,29.98,SE,135,4.9,4.9,73,0.00,,,0.00,WUHU216HW,2013-01-10 02:00:00,
2013-01-09 21:05:00,42.7,34.7,29.98,SSW,203,1.1,6.9,73,0.00,,,0.00,WUHU216HW,2013-01-10 02:05:00,
2013-01-09 21:10:00,42.8,34.5,29.98,SW,225,1.8,6.9,72,0.00,,,0.00,WUHU216HW,2013-01-10 02:10:00,
2013-01-09 21:15:00,42.8,34.5,29.98,SSW,203,1.1,6.3,72,0.00,,,0.00,WUHU216HW,2013-01-10 02:15:00,
2013-01-09 21:20:00,42.8,34.2,29.99,South,180,2.7,5.6,71,0.00,,,0.00,WUHU216HW,2013-01-10 02:20:00,
2013-01-09 21:25:00,42.8,34.2,29.99,West,270,4.3,5.6,71,0.00,,,0.00,WUHU216HW,2013-01-10 02:25:00,
2013-01-09 21:30:00,42.8,34.2,30.00,WNW,293,4.0,5.4,71,0.00,,,0.00,WUHU216HW,2013-01-10 02:30:00,
2013-01-09 21:35:00,42.8,34.2,30.00,WNW,293,1.8,4.3,71,0.00,,,0.00,WUHU216HW,2013-01-10 02:35:00,
2013-01-09 21:40:00,42.8,34.2,30.00,WSW,248,2.9,4.0,71,0.00,,,0.00,WUHU216HW,2013-01-10 02:40:00,
2013-01-09 21:45:00,43.0,34.0,30.00,SSW,203,0.4,6.3,70,0.00,,,0.00,WUHU216HW,2013-01-10 02:45:00,
2013-01-09 21:50:00,42.8,33.8,30.00,WSW,248,1.6,6.3,70,0.00,,,0.00,WUHU216HW,2013-01-10 02:50:00,
2013-01-09 21:55:00,42.8,33.8,30.00,SW,225,1.3,4.7,70,0.00,,,0.00,WUHU216HW,2013-01-10 02:55:00,
2013-01-09 22:00:00,42.8,34.2,30.00,WSW,248,1.1,4.7,71,0.00,,,0.00,WUHU216HW,2013-01-10 03:00:00,
2013-01-09 22:05:00,42.7,34.0,30.00,WSW,248,0.2,2.7,71,0.00,,,0.00,WUHU216HW,2013-01-10 03:05:00,
2013-01-09 22:10:00,42.5,33.9,30.00,WSW,248,2.9,2.9,71,0.00,,,0.00,WUHU216HW,2013-01-10 03:10:00,
2013-01-09 22:15:00,42.5,33.9,30.00,SSW,203,2.0,3.4,71,0.00,,,0.00,WUHU216HW,2013-01-10 03:15:00,
2013-01-09 22:20:00,42.5,33.9,30.01,NNW,338,1.1,4.0,71,0.00,,,0.00,WUHU216HW,2013-01-10 03:20:00,
2013-01-09 22:25:00,42.5,33.5,30.01,South,180,0.9,4.0,70,0.00,,,0.00,WUHU216HW,2013-01-10 03:25:00,
2013-01-09 22:30:00,42.5,33.5,30.02,WSW,248,0.4,3.4,70,0.00,,,0.00,WUHU216HW,2013-01-10 03:30:00,
2013-01-09 22:35:00,42.7,34.0,30.02,South,180,0.4,3.8,71,0.00,,,0.00,WUHU216HW,2013-01-10 03:35:00,
2013-01-09 22:40:00,42.5,33.9,30.02,SSW,203,0.7,3.8,71,0.00,,,0.00,WUHU216HW,2013-01-10 03:40:00,
2013-01-09 22:45:00,42.5,33.9,30.02,SSW,203,1.3,4.0,71,0.00,,,0.00,WUHU216HW,2013-01-10 03:45:00,
2013-01-09 22:50:00,42.3,33.3,30.03,West,270,5.4,5.8,70,0.00,,,0.00,WUHU216HW,2013-01-10 03:50:00,
2013-01-09 22:55:00,42.5,33.5,30.03,NW,315,1.6,5.8,70,0.00,,,0.00,WUHU216HW,2013-01-10 03:55:00,
2013-01-09 23:00:00,42.7,32.9,30.02,WSW,248,2.0,5.4,68,0.00,,,0.00,WUHU216HW,2013-01-10 04:00:00,
2013-01-09 23:05:00,43.2,32.2,30.02,WNW,293,0.7,7.2,65,0.00,,,0.00,WUHU216HW,2013-01-10 04:05:00,
2013-01-09 23:10:00,43.6,31.8,30.02,ESE,113,0.7,10.5,63,0.00,,,0.00,WUHU216HW,2013-01-10 04:10:00,
2013-01-09 23:15:00,43.6,30.6,30.02,ESE,113,4.0,10.5,60,0.00,,,0.00,WUHU216HW,2013-01-10 04:15:00,
2013-01-09 23:20:00,43.7,30.3,30.01,West,270,4.0,7.6,59,0.00,,,0.00,WUHU216HW,2013-01-10 04:20:00,
2013-01-09 23:25:00,43.9,30.1,30.02,WNW,293,3.6,7.6,58,0.00,,,0.00,WUHU216HW,2013-01-10 04:25:00,
2013-01-09 23:30:00,44.1,29.3,30.01,WSW,248,3.6,7.8,56,0.00,,,0.00,WUHU216HW,2013-01-10 04:30:00,
2013-01-09 23:35:00,44.1,29.8,30.01,West,270,3.4,7.8,57,0.00,,,0.00,WUHU216HW,2013-01-10 04:35:00,
2013-01-09 23:40:00,44.3,29.1,30.01,WNW,293,7.6,8.7,55,0.00,,,0.00,WUHU216HW,2013-01-10 04:40:00,
2013-01-09 23:45:00,44.1,28.0,30.01,WSW,248,7.8,8.7,53,0.00,,,0.00,WUHU216HW,2013-01-10 04:45:00,
2013-01-09 23:50:00,44.3,28.2,30.01,NW,315,5.4,8.1,53,0.00,,,0.00,WUHU216HW,2013-01-10 04:50:00,
2013-01-09 23:55:00,44.3,28.2,30.01,SW,225,5.6,12.1,53,0.00,,,0.00,WUHU216HW,2013-01-10 04:55:00,